Regional Weather Roundup
Issued by NWS San Diego, CA

Home | Current Version | Previous Version | Text Only | Print | Product List | Glossary On
Versions: 1 2 3 4 5 6 7 8 9 10 11 12 13 14 15 16 17 18 19 20 21 22 23 24 25 26 27 28 29 30 31 32 33 34 35 36 37 38 39 40 41 42 43 44 45 46 47 48 49 50
000
ASUS46 KSGX 100710
RWRSGX

SAN DIEGO HOURLY WEATHER ROUNDUP
NATIONAL WEATHER SERVICE SAN DIEGO CA
1200 AM PDT THU JUL 10 2014

NOTE: "FAIR" INDICATES FEW OR NO CLOUDS BELOW 12,000 FEET WITH NO
SIGNIFICANT WEATHER AND/OR OBSTRUCTIONS TO VISIBILITY.

CAZ042-043-060-061-PZZ750-775-100800-

GREATER SAN DIEGO AREA

CITY           SKY/WX    TMP DP  RH WIND       PRES   REMARKS
LINDBERGH FLD  CLOUDY    70  60  70 CALM      29.97S
POINT LOMA       N/A     66  60  82 E1          N/A
NATIONAL CITY    N/A     69  63  81 SW1       29.97S
CHULA VISTA      N/A     68  63  85 CALM      29.90S
IMPERIAL BEACH CLOUDY    65  60  84 CALM      29.96F
BROWN FIELD    CLEAR     64  60  87 CALM      29.97S
MIRAMAR MCAS   CLOUDY    67  60  78 CALM      29.96F
MONTGOMERY FLD CLOUDY    67  61  81 CALM      29.97S

$$

NORTH SAN DIEGO COUNTY

CITY           SKY/WX    TMP DP  RH WIND       PRES   REMARKS
CAMP PENDLETON MOCLDY    68  60  75 S5        29.96R
OCEANSIDE AP   CLOUDY    66  61  84 CALM      29.95S
VISTA            N/A     67  62  85 CALM      29.94S
CARLSBAD       CLOUDY    68  61  78 CALM      29.95F
DEL MAR          N/A     67  63  85 CALM      29.98S
LA JOLLA SCRIP   N/A     67  64  89 W1        29.93
FALLBROOK        N/A     66  65  97 CALM      29.96R
ESCONDIDO        N/A     66  61  83 SW2       29.97S
SAN MARCOS       N/A     66  61  84 CALM      29.94S
POWAY            N/A     66  61  85 SW2       29.97S
R. PENASQUITOS   N/A     66  62  86 CALM      29.96S

$$

EAST SAN DIEGO COUNTY

CITY           SKY/WX    TMP DP  RH WIND       PRES   REMARKS
RAMONA         CLEAR     61  58  90 CALM      29.99S
SANTEE LAKES     N/A     66  61  86 CALM      29.97S
GILLESPIE FLD  CLOUDY    66  61  82 CALM      29.98S
LA MESA          N/A     66  63  88 CALM      29.91R
JAMUL            N/A     62  59  89 CALM      29.95R
DESCANSO N       N/A     64  41  44 E1        29.78S
MT. LAGUNA OBS   N/A     67  18  15 CALM      29.76F
CAMPO            N/A     59  47  64 NE3       29.99S

$$

ORANGE COUNTY AND THE LOS ANGELES BASIN

CITY           SKY/WX    TMP DP  RH WIND       PRES   REMARKS
JOHN WAYNE AP  CLOUDY    70  61  73 SW6       29.95F
LAGUNA BEACH     N/A     69  64  83 CALM      29.91S
LAKE FOREST FR   N/A     66  60  79 CALM      29.84S
SANTA ANA        N/A     69  64  82 CALM      29.91S
HUNTINGTON BCH   N/A     66  63  89 CALM      29.97S
LOS ALAMITOS   FAIR      67  62  84 SE2       29.95S
FULLERTON      MOCLDY    70  62  76 SE6       29.94S
LONG BEACH     CLEAR     67  62  84 N3        29.95S
L.A. AP        MOCLDY    67  61  81 W7        29.96S
L.A. DOWNTOWN  MOCLDY    67  61  81 CALM      29.95S

$$

THE INLAND EMPIRE

CITY           SKY/WX    TMP DP  RH WIND       PRES   REMARKS
CORONA         CLEAR     67  62  84 CALM      29.96S
CHINO          CLEAR     65  61  87 W8        29.97S
ONTARIO        CLEAR     68  61  78 W8        29.96R
RIVERSIDE AP   CLEAR     68  61  78 W7        29.96S
RIV CYN CREST    N/A     69  67  93 NW2       29.94R
MORENO VALLEY    N/A     69  61  76 CALM      28.05S
MARCH ARB      CLEAR     67  60  75 W6        29.97F
HORSETHIEF CYN   N/A     68  57  67 SW1       29.95S
PERRIS           N/A     68  60  74 S2          N/A
MENIFEE          N/A     67  62  83 SE3       30.02S
HEMET EAST       N/A     69  50  50 CALM      29.90S
FRENCH VALLEY  FAIR      64  59  82 S6        29.98S
TEMECULA         N/A     65  61  87 SW1       29.95S

$$

SAN BERNARDINO AND RIVERSIDE COUNTY MOUNTAINS

CITY           SKY/WX    TMP DP  RH WIND       PRES   REMARKS
BIG BEAR AP    PTCLDY    59  32  36 CALM      30.26S
BIG BEAR SHEA    N/A     57  34  41 S1        29.88F
PINE COVE        N/A     66  35  31 N2        29.85F

$$

SOUTHERN DESERT INCLUDING THE COACHELLA VALLEY

CITY           SKY/WX    TMP DP  RH WIND       PRES   REMARKS
PALM SPRINGS   CLEAR     91  51  25 N5        29.84S
THOUSAND PALMS   N/A     91  68  47 E1        29.79S
PALM DESERT      N/A     91  55  29 NW1         N/A
THERMAL        CLEAR     91  70  49 S8        29.77R HX  96
BLYTHE         CLOUDY    90  67  46 S9        29.81R
IMPERIAL AP    PTCLDY    87  71  58 SE12G18   29.77R
EL CENTRO NAS  CLEAR     85  71  63 E7        29.77S
YUMA AZ        PTCLDY    89  64  43 S9        29.81S

$$

UPPER DESERT

CITY           SKY/WX    TMP DP  RH WIND       PRES   REMARKS
VICTORVILLE AP CLEAR     75  37  25 S3        29.98S
HESPERIA         N/A     78  47  32 W7        29.90F
APPLE VALLEY     N/A     78  41  27 SW3       30.04S
GRAY BUTTE AP  FAIR      76  39  26 NW5       29.97S
PALMDALE       CLEAR     79  39  23 W5        29.97R
LANCASTER      CLEAR     76  47  35 SW16      29.94S
EDWARDS AFB    CLEAR     77  47  34 SW15      29.91S
DAGGETT        PTCLDY    87  31  13 NW13G20   29.88R
29 PALMS N     MOCLDY    88  57  34 SW7       29.96R
NEEDLES        MOCLDY    91  65  41 SW7       29.82S

$$

REGIONAL REPORTS

CITY           SKY/WX    TMP DP  RH WIND       PRES   REMARKS
SANTA BARBARA  CLOUDY    66  61  84 E7        29.93S
SANDBERG       CLEAR     67  42  40 S10       30.11S
MT. WILSON       N/A     64  37  36 SW6         N/A
LAS VEGAS NV   MOCLDY    89  61  38 S14       29.83S
PHOENIX AZ     PTCLDY    92  59  33 W6        29.86S
TIJUANA        PTCLDY    64  57  77 NW6       29.98S
ENSENADA NW      N/A     67  32  26 SW1       29.93F

$$

OFFSHORE ISLANDS

CITY           SKY/WX    TMP DP  RH WIND       PRES   REMARKS
CATALINA ARPT  FOG       59  58  96 S5        29.98F VSB 1/4
SAN NICOLAS IS CLOUDY   N/A N/A N/A W15       29.96S

$$

MARINE AND OFFSHORE BUOY REPORTS

STATION/POSITION SKY/WX   TEMP    WIND        PRES    SWELL
                          AIR SEA DIR/SP/G            HT/PER/DIR
                          (F)     (DEG/KT/KT) (MB)    (FT/S/D)
TANNER BANKS               60 63  300/ 12/ 14 1015.4F   5/190/14
S CLEMENTE BASIN           64 68  300/  6/ 10 1014.6S   3/180/15
SO. S. ROSA ISLA           62 67  300/ 14/ 17 1014.3R   3/10
W. S. BARBARA CH           60 64  300/ 17/ 21 1013.5R   3/310/10
M. S. BARBARA CH           63     250/ 14     1013.6R
S. MONICA BASIN            65 69  310/  6/  8 1014.1R   3/190/15
S PEDRO CHANNEL               70                N/A     2/170/15
DANA POINT                    74                N/A     2/200/13
CMP PENDLETON NS              74                N/A     2/210/14
OCEANSIDE OFFSHR              74                N/A     2/190/13
TORREY PINES OTR              73                N/A     2/200/13
LA JOLLA 1                 69 75  360/  2/  3 1014.5F
MISSION BAY BUOY              73                N/A     2/200/14
SAN DIEGO BAY                 76              1014.9F
POINT LOMA SOUTH              72                N/A     2/190/14

$$



USA.gov is the U.S. government's official web portal to all federal, state and local government web resources and services.